EW0890 Weather Reports


time (UTC)temp
C
wind
direction
speed
KPH
gust
KPH
rain 1hr
cm
rain 24hr
cm
rain mn
cm
humidity
%
barometer
mb
20260901155008 30 238 4.8 9.7 0.00 0.00 0.00 73 1016.6
20260901154640 30 282 4.8 12.9 0.00 0.00 0.00 73 1016.6
20260901154519 30 264 4.8 12.9 0.00 0.00 0.00 73 1016.7
20260901154008 29 266 6.4 12.9 0.00 0.00 0.00 70 1016.7
20260901153508 29 219 6.4 12.9 0.00 0.00 0.00 71 1016.6
20260901153117 29 288 6.4 12.9 0.00 0.00 0.00 71 1016.6
20260901153027 29 286 6.4 12.9 0.00 0.00 0.00 73 1016.5
20260901152511 29 285 4.8 11.3 0.00 0.00 0.00 74 1016.6
20260901152014 29 249 4.8 9.7 0.00 0.00 0.00 73 1016.6
20260901151605 29 249 4.8 12.9 0.00 0.00 0.00 73 1016.5
20260901151529 28 263 4.8 12.9 0.00 0.00 0.00 74 1016.4
20260901151013 28 267 6.4 12.9 0.00 0.00 0.00 73 1016.5
20260901150506 28 274 4.8 12.9 0.00 0.00 0.00 74 1016.4
20260901150111 28 275 6.4 12.9 0.00 0.00 0.00 74 1016.5
20260901150009 28 307 6.4 12.9 0.00 0.00 0.00 75 1016.5
20260901145504 28 261 6.4 12.9 0.00 0.00 0.00 74 1016.5
20260901145006 28 295 6.4 12.9 0.00 0.00 0.00 74 1016.5
20260901144603 28 288 8.0 12.9 0.00 0.00 0.00 74 1016.5
20260901144515 28 294 8.0 12.9 0.00 0.00 0.00 74 1016.4
20260901144007 28 200 6.4 12.9 0.00 0.00 0.00 76 1016.5
20260901143508 27 299 9.7 12.9 0.00 0.00 0.00 74 1016.4
20260901143106 27 280 4.8 11.3 0.00 0.00 0.00 77 1016.4
20260901143023 27 257 4.8 11.3 0.00 0.00 0.00 76 1016.5
20260901142511 27 283 6.4 11.3 0.00 0.00 0.00 77 1016.5
20260901142013 27 289 8.0 14.5 0.00 0.00 0.00 76 1016.5
20260901141603 27 278 8.0 14.5 0.00 0.00 0.00 77 1016.4
20260901141536 27 303 8.0 14.5 0.00 0.00 0.00 76 1016.4
20260901141014 27 285 4.8 11.3 0.00 0.00 0.00 78 1016.5
20260901140512 27 269 6.4 12.9 0.00 0.00 0.00 77 1016.4
20260901140109 26 250 4.8 14.5 0.00 0.00 0.00 78 1016.5
20260901140031 26 290 4.8 14.5 0.00 0.00 0.00 79 1016.5
20260901135519 26 301 8.0 14.5 0.00 0.00 0.00 77 1016.5
20260901135002 26 290 6.4 14.5 0.00 0.00 0.00 77 1016.5
20260901134608 26 291 6.4 9.7 0.00 0.00 0.00 78 1016.5
20260901134513 26 301 6.4 9.7 0.00 0.00 0.00 78 1016.5
20260901134003 26 273 3.2 8.0 0.00 0.00 0.00 79 1016.6
20260901133505 26 308 4.8 8.0 0.00 0.00 0.00 79 1016.5
20260901133112 26 252 3.2 9.7 0.00 0.00 0.00 81 1016.4
20260901133015 26 286 3.2 9.7 0.00 0.00 0.00 81 1016.4
20260901132509 26 226 3.2 9.7 0.00 0.00 0.00 80 1016.4
20260901132011 26 281 3.2 6.4 0.00 0.00 0.00 81 1016.4
20260901131603 26 265 3.2 8.0 0.00 0.00 0.00 81 1016.3
20260901131531 25 276 4.8 8.0 0.00 0.00 0.00 81 1016.4
20260901131011 25 268 4.8 8.0 0.00 0.00 0.00 81 1016.4
20260901130515 25 289 3.2 8.0 0.00 0.00 0.00 82 1016.3
20260901130029 25 289 3.2 8.0 0.00 0.00 0.00 82 1016.2
20260901125514 25 307 4.8 8.0 0.00 0.00 0.00 82 1016.2
20260901125016 25 292 3.2 9.7 0.00 0.00 0.00 83 1016.2
20260901124606 25 245 4.8 9.7 0.00 0.00 0.00 83 1016.3
20260901124533 25 294 4.8 9.7 0.00 0.00 0.00 83 1016.3
20260901124021 25 279 3.2 8.0 0.00 0.00 0.00 83 1016.3
20260901123504 24 278 3.2 9.7 0.00 0.00 0.00 83 1016.2
20260901123119 24 263 3.2 9.7 0.00 0.00 0.00 84 1016.2
20260901123014 24 290 3.2 9.7 0.00 0.00 0.00 84 1016.2
20260901122506 24 279 4.8 9.7 0.00 0.00 0.00 84 1016.2
20260901122007 24 264 3.2 9.7 0.00 0.00 0.00 84 1016.1
20260901121607 23 291 4.8 8.0 0.00 0.00 0.00 84 1016.1
20260901121524 23 250 4.8 8.0 0.00 0.00 0.00 84 1016.2
20260901121011 23 255 3.2 9.7 0.00 0.00 0.00 85 1016.0
20260901120511 23 223 4.8 9.7 0.00 0.00 0.00 86 1015.9
20260901120118 23 300 3.2 9.7 0.00 0.00 0.00 86 1015.9
20260901120027 23 266 3.2 9.7 0.00 0.00 0.00 86 1015.9
20260901115516 23 267 3.2 9.7 0.00 0.00 0.00 87 1015.9
20260901115014 23 279 3.2 6.4 0.00 0.00 0.00 88 1015.9
20260901114602 22 278 3.2 6.4 0.00 0.00 0.00 88 1015.8
20260901114531 22 296 3.2 6.4 0.00 0.00 0.00 88 1015.9
20260901114016 22 281 1.6 6.4 0.00 0.00 0.00 88 1015.8
20260901113515 22 285 1.6 6.4 0.00 0.00 0.00 89 1015.7
20260901113118 22 283 3.2 4.8 0.00 0.00 0.00 89 1015.7
20260901113033 22 288 3.2 4.8 0.00 0.00 0.00 89 1015.6
20260901112516 22 252 3.2 6.4 0.00 0.00 0.00 90 1015.6
20260901112011 22 278 1.6 6.4 0.00 0.00 0.00 90 1015.6
20260901111606 22 260 1.6 6.4 0.00 0.00 0.00 90 1015.6
20260901111518 22 291 1.6 6.4 0.00 0.00 0.00 90 1015.5
20260901111006 22 284 1.6 4.8 0.00 0.00 0.00 90 1015.4
20260901110510 22 253 1.6 4.8 0.00 0.00 0.00 90 1015.3
20260901110108 22 262 1.6 4.8 0.00 0.00 0.00 90 1015.5
20260901110026 22 264 1.6 4.8 0.00 0.00 0.00 90 1015.4
20260901105509 22 252 1.6 4.8 0.00 0.00 0.00 90 1015.4
20260901105014 22 297 1.6 4.8 0.00 0.00 0.00 91 1015.4
20260901104600 22 288 1.6 4.8 0.00 0.00 0.00 91 1015.4
20260901104530 22 299 1.6 4.8 0.00 0.00 0.00 91 1015.3
20260901104016 22 276 1.6 4.8 0.00 0.00 0.00 91 1015.3
20260901103516 22 260 1.6 3.2 0.00 0.00 0.00 90 1015.4
20260901103109 22 278 1.6 4.8 0.00 0.00 0.00 90 1015.4
20260901103032 22 263 1.6 4.8 0.00 0.00 0.00 90 1015.5
20260901102517 22 301 1.6 4.8 0.00 0.00 0.00 90 1015.4
20260901102015 22 278 0.0 3.2 0.00 0.00 0.00 89 1015.4
20260901101603 22 289 0.0 4.8 0.00 0.00 0.00 89 1015.5
20260901101531 22 286 0.0 4.8 0.00 0.00 0.00 88 1015.4
20260901101020 22 259 1.6 4.8 0.00 0.00 0.00 88 1015.5
20260901100508 22 258 1.6 4.8 0.00 0.00 0.00 88 1015.5
20260901100108 22 259 1.6 4.8 0.00 0.00 0.00 89 1015.5
20260901100027 22 240 1.6 4.8 0.00 0.00 0.00 89 1015.4
20260901095517 22 264 1.6 4.8 0.00 0.00 0.00 89 1015.4
20260901095012 22 284 1.6 4.8 0.00 0.00 0.00 89 1015.4
20260901094601 22 258 1.6 6.4 0.00 0.00 0.00 89 1015.3
20260901094526 22 295 1.6 4.8 0.00 0.00 0.00 89 1015.3
20260901094015 22 257 1.6 6.4 0.00 0.00 0.00 88 1015.2
20260901093514 22 272 1.6 8.0 0.00 0.00 0.00 88 1015.2
20260901093106 22 284 1.6 8.0 0.00 0.00 0.00 88 1015.2
20260901093031 22 267 1.6 8.0 0.00 0.00 0.00 88 1015.2
20260901092518 22 264 1.6 4.8 0.00 0.00 0.00 88 1015.2
20260901092019 22 292 1.6 4.8 0.00 0.00 0.00 88 1015.2
20260901091606 22 289 1.6 4.8 0.00 0.00 0.00 88 1015.3
20260901091532 23 274 1.6 4.8 0.00 0.00 0.00 87 1015.2
20260901091018 23 256 1.6 4.8 0.00 0.00 0.00 87 1015.2
20260901090518 23 278 1.6 6.4 0.00 0.00 0.00 87 1015.2
20260901090104 23 275 1.6 6.4 0.00 0.00 0.00 87 1015.3
20260901090041 23 278 1.6 6.4 0.00 0.00 0.00 87 1015.2
20260901085507 23 249 1.6 4.8 0.00 0.00 0.00 87 1015.2
20260901085007 23 295 1.6 4.8 0.00 0.00 0.00 87 1015.2
20260901084604 23 270 1.6 4.8 0.00 0.00 0.00 87 1015.3
20260901084524 23 281 1.6 4.8 0.00 0.00 0.00 87 1015.2
20260901084011 23 300 1.6 4.8 0.00 0.00 0.00 87 1015.1
20260901083512 23 250 1.6 4.8 0.00 0.00 0.00 87 1015.2
20260901083101 23 277 1.6 4.8 0.00 0.00 0.00 87 1015.3
20260901083036 23 258 1.6 4.8 0.00 0.00 0.00 87 1015.2
20260901082515 23 283 1.6 4.8 0.00 0.00 0.00 87 1015.2
20260901082015 23 222 1.6 4.8 0.00 0.00 0.00 87 1015.3
20260901081603 23 274 1.6 4.8 0.00 0.00 0.00 87 1015.3
20260901081532 23 283 1.6 4.8 0.00 0.00 0.00 87 1015.2
20260901081013 23 312 1.6 4.8 0.00 0.00 0.00 87 1015.3
20260901080518 23 290 3.2 4.8 0.00 0.00 0.00 87 1015.2
20260901080112 23 288 3.2 4.8 0.00 0.00 0.00 87 1015.2
20260901080034 23 266 1.6 4.8 0.00 0.00 0.00 87 1015.2
20260901075519 23 281 3.2 4.8 0.00 0.00 0.00 87 1015.3
20260901075017 23 248 1.6 4.8 0.00 0.00 0.00 87 1015.2
20260901074602 23 278 3.2 4.8 0.00 0.00 0.00 88 1015.3
20260901074533 23 281 3.2 4.8 0.00 0.00 0.00 88 1015.2
20260901074008 23 257 1.6 4.8 0.00 0.00 0.00 88 1015.3
20260901073510 23 248 1.6 8.0 0.00 0.00 0.00 88 1015.2
20260901073105 23 289 3.2 8.0 0.00 0.00 0.00 88 1015.3
20260901073036 23 283 3.2 8.0 0.00 0.00 0.00 88 1015.2
20260901072516 23 256 1.6 4.8 0.00 0.00 0.00 88 1015.2
20260901072015 23 265 1.6 4.8 0.00 0.00 0.00 88 1015.2
20260901071605 23 271 1.6 4.8 0.00 0.00 0.00 88 1015.3
20260901071530 23 283 1.6 4.8 0.00 0.00 0.00 88 1015.2
20260901071005 23 284 1.6 8.0 0.00 0.00 0.00 88 1015.2
20260901070504 23 266 1.6 8.0 0.00 0.00 0.00 87 1015.2
20260901070104 23 242 1.6 8.0 0.00 0.00 0.00 87 1015.2
20260901070019 23 271 1.6 8.0 0.00 0.00 0.00 87 1015.2
20260901065506 23 289 1.6 4.8 0.00 0.00 0.00 87 1015.2
20260901065006 23 281 1.6 4.8 0.00 0.00 0.00 86 1015.2
20260901064605 23 309 1.6 4.8 0.00 0.00 0.00 86 1015.4
20260901064527 23 285 1.6 4.8 0.00 0.00 0.00 86 1015.3
20260901064010 23 276 1.6 6.4 0.00 0.00 0.00 86 1015.3
20260901063509 23 248 1.6 6.4 0.00 0.00 0.00 86 1015.3
20260901063115 23 277 1.6 4.8 0.00 0.00 0.00 86 1015.3
20260901063023 23 288 1.6 4.8 0.00 0.00 0.00 86 1015.2
20260901062012 23 302 3.2 4.8 0.00 0.00 0.00 85 1015.2
20260901061617 23 281 1.6 4.8 0.00 0.00 0.00 85 1015.3
20260901061529 23 285 1.6 4.8 0.00 0.00 0.00 85 1015.1
20260901061003 23 272 3.2 6.4 0.00 0.00 0.00 85 1015.1
20260901060503 24 270 1.6 6.4 0.00 0.00 0.00 84 1015.1
20260901060108 24 276 3.2 8.0 0.00 0.00 0.00 84 1015.2
20260901060011 24 289 3.2 8.0 0.00 0.00 0.00 84 1015.2
20260901055504 24 254 3.2 8.0 0.00 0.00 0.00 84 1015.2
20260901055003 24 262 3.2 9.7 0.00 0.00 0.00 84 1015.2
20260901054601 24 307 3.2 9.7 0.00 0.00 0.00 84 1015.2
20260901054511 24 280 3.2 9.7 0.00 0.00 0.00 84 1015.1
20260901054006 24 257 1.6 4.8 0.00 0.00 0.00 84 1015.1
20260901053508 24 265 1.6 6.4 0.00 0.00 0.00 84 1015.1
20260901053104 24 283 1.6 6.4 0.00 0.00 0.00 84 1015.2
20260901053019 24 316 1.6 6.4 0.00 0.00 0.00 84 1015.1
20260901052509 24 302 3.2 6.4 0.00 0.00 0.00 84 1015.0
20260901052009 24 263 3.2 6.4 0.00 0.00 0.00 84 1015.1
20260901051619 24 311 1.6 6.4 0.00 0.00 0.00 84 1015.2
20260901051526 24 281 1.6 6.4 0.00 0.00 0.00 83 1015.1
20260901051012 24 265 1.6 4.8 0.00 0.00 0.00 83 1015.1
20260901050513 24 272 1.6 6.4 0.00 0.00 0.00 83 1015.2
20260901050109 24 272 1.6 6.4 0.00 0.00 0.00 83 1015.3
20260901050029 24 288 1.6 6.4 0.00 0.00 0.00 83 1015.2
20260901045502 24 272 1.6 8.0 0.00 0.00 0.00 83 1015.2
20260901045003 25 277 1.6 8.0 0.00 0.00 0.00 83 1015.2
20260901044603 25 233 1.6 6.4 0.00 0.00 0.00 82 1015.3
20260901044510 25 271 1.6 6.4 0.00 0.00 0.00 82 1015.2
20260901044004 25 279 1.6 6.4 0.00 0.00 0.00 82 1015.2
20260901043506 25 265 1.6 4.8 0.00 0.00 0.00 82 1015.2
20260901043103 25 285 1.6 4.8 0.00 0.00 0.00 82 1015.4
20260901043015 25 260 1.6 4.8 0.00 0.00 0.00 82 1015.2
20260901042509 25 267 1.6 6.4 0.00 0.00 0.00 82 1015.3
20260901042007 25 248 1.6 6.4 0.00 0.00 0.00 81 1015.2
20260901041605 25 291 1.6 6.4 0.00 0.00 0.00 81 1015.4
20260901041525 25 274 3.2 6.4 0.00 0.00 0.00 81 1015.3
20260901041011 25 316 3.2 4.8 0.00 0.00 0.00 81 1015.3
20260901040511 25 266 1.6 4.8 0.00 0.00 0.00 81 1015.3
20260901040105 25 202 1.6 4.8 0.00 0.00 0.00 81 1015.4
20260901040033 25 210 1.6 4.8 0.00 0.00 0.00 81 1015.2
20260901035512 25 294 1.6 4.8 0.00 0.00 0.00 81 1015.3
20260901035011 25 255 1.6 4.8 0.00 0.00 0.00 81 1015.3
20260901034609 25 274 1.6 4.8 0.00 0.00 0.00 82 1015.5
20260901034535 25 294 1.6 4.8 0.00 0.00 0.00 82 1015.3
20260901034005 25 289 1.6 4.8 0.00 0.00 0.00 82 1015.4
20260901033503 25 335 1.6 4.8 0.00 0.00 0.00 83 1015.4
20260901033114 24 255 1.6 4.8 0.00 0.00 0.00 84 1015.5
20260901033012 24 269 1.6 4.8 0.00 0.00 0.00 84 1015.4
20260901032503 24 256 1.6 4.8 0.00 0.00 0.00 85 1015.4
20260901032009 24 276 0.0 4.8 0.00 0.00 0.00 86 1015.4
20260901031604 24 309 1.6 3.2 0.00 0.00 0.00 86 1015.4
20260901031540 24 276 1.6 3.2 0.00 0.00 0.00 86 1015.3
20260901031008 24 281 0.0 3.2 0.00 0.00 0.00 87 1015.4
20260901030509 23 148 0.0 3.2 0.00 0.00 0.00 87 1015.4
20260901030105 23 0 0.0 1.6 0.00 0.00 0.00 87 1015.5
20260901030024 23 240 0.0 1.6 0.00 0.00 0.00 87 1015.4
20260901025511 23 277 0.0 1.6 0.00 0.00 0.00 87 1015.3
20260901025012 23 273 0.0 1.6 0.00 0.00 0.00 87 1015.4
20260901024608 23 0 0.0 1.6 0.00 0.00 0.00 88 1015.5
20260901024530 23 273 0.0 1.6 0.00 0.00 0.00 88 1015.4
20260901024016 23 274 0.0 1.6 0.00 0.00 0.00 87 1015.4
20260901023521 23 278 0.0 0.0 0.00 0.00 0.00 87 1015.4
20260901023102 23 0 0.0 0.0 0.00 0.00 0.00 87 1015.5
20260901023037 23 279 0.0 0.0 0.00 0.00 0.00 87 1015.4
20260901022503 24 265 0.0 0.0 0.00 0.00 0.00 87 1015.4
20260901022003 24 265 0.0 0.0 0.00 0.00 0.00 87 1015.3
20260901021606 24 0 0.0 0.0 0.00 0.00 0.00 87 1015.3
20260901021512 24 265 0.0 0.0 0.00 0.00 0.00 87 1015.3
20260901021005 24 264 0.0 0.0 0.00 0.00 0.00 87 1015.3
20260901020509 24 264 0.0 0.0 0.00 0.00 0.00 86 1015.2
20260901020057 24 0 0.0 0.0 0.00 0.00 0.00 86 1015.3
20260901020016 24 264 0.0 0.0 0.00 0.00 0.00 86 1015.3
20260901015507 25 264 0.0 0.0 0.00 0.00 0.00 86 1015.3
20260901015016 25 269 0.0 0.0 0.00 0.00 0.00 86 1015.2
20260901014609 25 0 0.0 1.6 0.00 0.00 0.00 86 1015.2
20260901014524 25 269 0.0 1.6 0.00 0.00 0.00 86 1015.1
20260901014015 25 269 0.0 1.6 0.00 0.00 0.00 86 1015.1
20260901013514 25 294 0.0 1.6 0.00 0.00 0.00 86 1015.0
20260901013101 25 0 0.0 0.0 0.00 0.00 0.00 86 1015.0
20260901013031 25 269 0.0 0.0 0.00 0.00 0.00 86 1014.9
20260901012514 25 271 0.0 0.0 0.00 0.00 0.00 86 1014.8
20260901012018 25 271 0.0 0.0 0.00 0.00 0.00 86 1014.7
20260901011558 25 0 0.0 0.0 0.00 0.00 0.00 86 1014.8
20260901011532 25 270 0.0 0.0 0.00 0.00 0.00 86 1014.5
20260901011004 25 270 0.0 0.0 0.00 0.00 0.00 85 1014.5
20260901010503 25 276 0.0 0.0 0.00 0.00 0.00 85 1014.5
20260901010104 25 0 0.0 0.0 0.00 0.00 0.00 85 1014.7
20260901010029 25 275 0.0 0.0 0.00 0.00 0.00 85 1014.4
20260901005505 25 275 0.0 0.0 0.00 0.00 0.00 84 1014.4
20260901005011 26 275 0.0 0.0 0.00 0.00 0.00 83 1014.3
20260901004618 26 0 0.0 0.0 0.00 0.00 0.00 82 1014.5
20260901004524 26 275 0.0 0.0 0.00 0.00 0.00 81 1014.3
20260901004008 26 275 0.0 0.0 0.00 0.00 0.00 81 1014.3
20260901003512 26 275 0.0 0.0 0.00 0.00 0.00 79 1014.2
20260901003107 27 0 0.0 0.0 0.00 0.00 0.00 79 1014.4
20260901003027 27 275 0.0 0.0 0.00 0.00 0.00 78 1014.2
20260901002512 27 275 0.0 0.0 0.00 0.00 0.00 77 1014.3
20260901002017 27 275 0.0 0.0 0.00 0.00 0.00 76 1014.3
20260901001604 27 0 0.0 0.0 0.00 0.00 0.00 75 1014.3
20260901001530 27 275 0.0 0.0 0.00 0.00 0.00 75 1014.2
20260901001015 28 275 0.0 0.0 0.00 0.00 0.00 74 1014.1
20260901000521 28 275 0.0 0.0 0.00 0.00 0.00 73 1014.0
20260901000110 28 0 0.0 0.0 0.00 0.00 0.00 72 1014.1
20260901000033 28 277 0.0 0.0 0.00 0.00 0.00 72 1014.0
20260831235507 29 277 0.0 1.6 0.00 0.00 0.00 71 1013.8
20260831235007 30 278 0.0 1.6 0.00 0.00 0.00 71 1014.0
20260831234608 30 276 1.6 4.8 0.00 0.00 0.00 70 1014.0
20260831234518 30 276 1.6 4.8 0.00 0.00 0.00 70 1014.0
20260831234006 30 286 1.6 4.8 0.00 0.00 0.00 70 1013.9
20260831233508 30 285 1.6 3.2 0.00 0.00 0.00 69 1013.9
20260831233105 30 258 1.6 3.2 0.00 0.00 0.00 68 1013.9
20260831233024 30 281 1.6 3.2 0.00 0.00 0.00 68 1013.7
20260831232510 31 302 1.6 3.2 0.00 0.00 0.00 68 1013.9
20260831232014 31 279 1.6 4.8 0.00 0.00 0.00 67 1013.8
20260831231611 31 224 1.6 4.8 0.00 0.00 0.00 66 1013.8
20260831231536 31 299 1.6 4.8 0.00 0.00 0.00 66 1013.7
20260831231016 31 281 0.0 4.8 0.00 0.00 0.00 66 1013.6
20260831230515 31 295 1.6 4.8 0.00 0.00 0.00 66 1013.9
20260831230110 31 271 1.6 4.8 0.00 0.00 0.00 65 1014.0
20260831230038 31 254 1.6 4.8 0.00 0.00 0.00 66 1013.8
20260831225515 31 283 1.6 3.2 0.00 0.00 0.00 65 1013.6
20260831225018 31 279 1.6 4.8 0.00 0.00 0.00 65 1013.7
20260831224605 31 257 1.6 6.4 0.00 0.00 0.00 65 1013.9
20260831224512 31 233 1.6 6.4 0.00 0.00 0.00 65 1013.6
20260831224005 32 113 1.6 8.0 0.00 0.00 0.00 65 1013.5
20260831223507 32 297 1.6 8.0 0.00 0.00 0.00 64 1013.5
20260831223110 32 285 1.6 6.4 0.00 0.00 0.00 65 1013.7
20260831223020 32 292 1.6 6.4 0.00 0.00 0.00 64 1013.4
20260831222508 32 283 1.6 6.4 0.00 0.00 0.00 64 1013.4
20260831222010 32 250 3.2 6.4 0.00 0.00 0.00 63 1013.5
20260831221610 32 268 3.2 9.7 0.00 0.00 0.00 63 1013.8
20260831221532 32 187 3.2 9.7 0.00 0.00 0.00 64 1013.5
20260831221013 32 239 1.6 9.7 0.00 0.00 0.00 64 1013.6
20260831220514 32 309 1.6 6.4 0.00 0.00 0.00 63 1013.6
20260831220104 32 157 3.2 6.4 0.00 0.00 0.00 64 1014.0
20260831220029 32 131 3.2 6.4 0.00 0.00 0.00 64 1013.6
20260831215520 32 245 3.2 8.0 0.00 0.00 0.00 63 1013.7
20260831215016 32 267 3.2 8.0 0.00 0.00 0.00 63 1013.7
20260831214608 32 221 1.6 8.0 0.00 0.00 0.00 64 1014.1
20260831214536 32 143 1.6 8.0 0.00 0.00 0.00 64 1013.8
20260831213515 32 240 3.2 6.4 0.00 0.00 0.00 64 1013.8
20260831213114 32 176 3.2 8.0 0.00 0.00 0.00 63 1014.2
20260831213016 32 267 3.2 6.4 0.00 0.00 0.00 64 1013.8
20260831212507 32 289 3.2 8.0 0.00 0.00 0.00 64 1013.8
20260831212012 32 345 3.2 8.0 0.00 0.00 0.00 64 1013.8
20260831211606 32 160 1.6 6.4 0.00 0.00 0.00 64 1014.1
20260831211524 32 16 3.2 4.8 0.00 0.00 0.00 64 1013.8
20260831211012 32 109 3.2 6.4 0.00 0.00 0.00 65 1013.7
20260831210511 32 217 3.2 8.0 0.00 0.00 0.00 65 1013.8
20260831210103 32 305 3.2 8.0 0.00 0.00 0.00 64 1014.1
20260831210027 32 153 3.2 8.0 0.00 0.00 0.00 64 1013.8
20260831205512 33 240 3.2 8.0 0.00 0.00 0.00 65 1013.8
20260831205016 33 262 3.2 8.0 0.00 0.00 0.00 63 1013.9
20260831204605 32 212 3.2 8.0 0.00 0.00 0.00 64 1014.2
20260831204532 32 275 3.2 8.0 0.00 0.00 0.00 64 1013.9
20260831204005 32 270 3.2 8.0 0.00 0.00 0.00 63 1014.0
20260831203506 33 245 1.6 8.0 0.00 0.00 0.00 62 1014.1
20260831203107 33 315 3.2 9.7 0.00 0.00 0.00 61 1014.4
20260831203013 33 269 3.2 9.7 0.00 0.00 0.00 61 1014.2
20260831202507 33 189 3.2 9.7 0.00 0.00 0.00 62 1014.3
20260831202007 33 228 3.2 11.3 0.00 0.00 0.00 63 1014.3
20260831201606 33 231 1.6 11.3 0.00 0.00 0.00 64 1014.7
20260831201521 33 174 1.6 11.3 0.00 0.00 0.00 64 1014.4
20260831201014 33 277 1.6 8.0 0.00 0.00 0.00 63 1014.4
20260831200512 33 214 3.2 8.0 0.00 0.00 0.00 62 1014.4
20260831200108 33 355 3.2 8.0 0.00 0.00 0.00 62 1014.6
20260831200023 33 255 3.2 8.0 0.00 0.00 0.00 64 1014.4
20260831195513 33 263 3.2 8.0 0.00 0.00 0.00 63 1014.5
20260831195011 33 338 3.2 8.0 0.00 0.00 0.00 62 1014.5
20260831194640 33 132 1.6 9.7 0.00 0.00 0.00 65 1014.7
20260831194556 32 297 1.6 9.7 0.00 0.00 0.00 65 1014.5
20260831194019 32 261 3.2 9.7 0.00 0.00 0.00 60 1014.4
20260831193515 32 266 3.2 6.4 0.00 0.00 0.00 62 1014.5
20260831193101 32 95 3.2 8.0 0.00 0.00 0.00 63 1014.8
20260831193031 32 274 3.2 8.0 0.00 0.00 0.00 64 1014.6
20260831192504 32 211 3.2 8.0 0.00 0.00 0.00 62 1014.8
20260831192008 32 186 3.2 8.0 0.00 0.00 0.00 62 1014.8
20260831191608 32 147 3.2 8.0 0.00 0.00 0.00 63 1015.2
20260831191519 32 161 3.2 8.0 0.00 0.00 0.00 64 1014.9
20260831191007 32 145 4.8 8.0 0.00 0.00 0.00 62 1014.9
20260831190510 32 275 3.2 8.0 0.00 0.00 0.00 62 1015.1
20260831190122 32 229 3.2 11.3 0.00 0.00 0.00 62 1015.3
20260831190018 32 60 3.2 11.3 0.00 0.00 0.00 63 1015.1
20260831185511 32 335 3.2 11.3 0.00 0.00 0.00 64 1015.1
20260831185013 32 166 3.2 8.0 0.00 0.00 0.00 65 1015.2
20260831184611 32 299 3.2 9.7 0.00 0.00 0.00 64 1015.4
20260831184540 32 299 3.2 9.7 0.00 0.00 0.00 64 1015.2
20260831184013 32 288 3.2 11.3 0.00 0.00 0.00 63 1015.3
20260831183517 32 279 3.2 11.3 0.00 0.00 0.00 65 1015.3
20260831183107 32 250 3.2 8.0 0.00 0.00 0.00 65 1015.7
20260831183028 32 200 3.2 8.0 0.00 0.00 0.00 67 1015.4
20260831182513 32 213 3.2 6.4 0.00 0.00 0.00 64 1015.5
20260831182016 31 345 3.2 8.0 0.00 0.00 0.00 63 1015.7
20260831181606 31 275 3.2 9.7 0.00 0.00 0.00 67 1015.8
20260831181535 31 274 3.2 9.7 0.00 0.00 0.00 65 1015.8
20260831181006 31 226 3.2 9.7 0.00 0.00 0.00 64 1015.8
20260831180507 31 231 3.2 8.0 0.00 0.00 0.00 66 1015.8
20260831180111 31 224 1.6 6.4 0.00 0.00 0.00 64 1015.8
20260831180023 31 191 1.6 4.8 0.00 0.00 0.00 67 1015.8
20260831175507 31 160 3.2 6.4 0.00 0.00 0.00 65 1015.8
20260831175008 31 318 3.2 8.0 0.00 0.00 0.00 67 1015.8
20260831174634 31 115 3.2 8.0 0.00 0.00 0.00 69 1015.8
20260831174520 31 224 3.2 8.0 0.00 0.00 0.00 67 1015.9
20260831174010 31 148 3.2 8.0 0.00 0.00 0.00 63 1015.9
20260831173509 31 247 3.2 6.4 0.00 0.00 0.00 68 1015.9
20260831173105 31 294 3.2 6.4 0.00 0.00 0.00 67 1015.9
20260831173027 31 245 3.2 6.4 0.00 0.00 0.00 65 1016.0
20260831172511 31 295 1.6 11.3 0.00 0.00 0.00 69 1016.0
20260831172017 30 266 1.6 11.3 0.00 0.00 0.00 68 1016.1
20260831171609 30 293 3.2 9.7 0.00 0.00 0.00 67 1016.2
20260831171541 30 274 3.2 9.7 0.00 0.00 0.00 67 1016.2
20260831171014 30 242 3.2 9.7 0.00 0.00 0.00 66 1016.3
20260831170522 30 267 1.6 6.4 0.00 0.00 0.00 69 1016.3
20260831170105 29 290 1.6 6.4 0.00 0.00 0.00 71 1016.3
20260831170100 29 285 3.2 6.4 0.00 0.00 0.00 71 1016.3
20260831165502 29 313 1.6 8.0 0.00 0.00 0.00 68 1016.4
20260831165007 29 260 3.2 8.0 0.00 0.00 0.00 68 1016.4
20260831164626 29 284 3.2 8.0 0.00 0.00 0.00 68 1016.5
20260831164517 29 263 3.2 6.4 0.00 0.00 0.00 68 1016.4
20260831164009 29 238 3.2 8.0 0.00 0.00 0.00 68 1016.4
20260831163509 29 278 4.8 8.0 0.00 0.00 0.00 67 1016.4
20260831163106 29 310 4.8 8.0 0.00 0.00 0.00 66 1016.4
20260831163028 29 241 4.8 8.0 0.00 0.00 0.00 67 1016.4
20260831162513 29 200 3.2 8.0 0.00 0.00 0.00 68 1016.4
20260831162015 29 283 3.2 11.3 0.00 0.00 0.00 67 1016.4
20260831161608 28 288 4.8 11.3 0.00 0.00 0.00 67 1016.4
20260831161531 28 238 4.8 11.3 0.00 0.00 0.00 67 1016.4
20260831161014 28 231 4.8 8.0 0.00 0.00 0.00 67 1016.3
20260831160515 28 290 3.2 9.7 0.00 0.00 0.00 69 1016.3
20260831160105 28 256 3.2 9.7 0.00 0.00 0.00 69 1016.3
20260831160034 28 296 1.6 9.7 0.00 0.00 0.00 71 1016.4
20260831155518 28 302 3.2 8.0 0.00 0.00 0.00 71 1016.4